Meath Environmental Platform

Observations for Trim Market St

Time AQI Temp °C Hum % Pres Pa CO μg/m³ H₂S μg/m³ NO μg/m³ NO₂ μg/m³ O₃ μg/m³ SO₂ μg/m³ PM1 μg/m³ PM2.5 μg/m³ PM10 μg/m³
Wednesday 26 August 2026
18:21 2 25.7 50 59,374 0 3.65 1.16 20.89 145.58 0 3.56 8.11 12
18:18 2 25.8 50 60,017 0 4.55 1.08 20.7 151.7 0 4.28 7.62 9.77
18:17 2 25.9 49 60,341 0 5.45 1.04 22.92 142.66 0 4.28 7.63 10.52
18:15 2 26 49 61,095 0 4.64 1.02 20.93 147.93 0 3.56 7.13 9.78
18:13 2 26.2 49 61,761 0 4.56 1.12 20.46 146.99 0 3.56 6.12 8.28
18:12 2 26.3 49 62,047 0 3.14 1.2 20.22 140.11 0 4.28 6.64 8.28
18:10 2 26.4 48 62,533 0 5.29 1.16 22.81 134.86 0 4.28 6.66 9.04
18:09 2 26.5 48 62,811 0 6.09 1.22 28.06 148.32 0 4.28 7.71 11.31
18:08 2 26.5 48 63,141 0 4.14 1.22 21.33 151.73 0 4.28 7.2 9.04
18:07 2 26.6 48 63,394 0 3.18 1.15 20.51 142.12 0 4.28 7.73 9.8
18:05 2 26.8 47 63,784 0 3.62 1.28 22.1 129.12 0 4.28 6.2 8.29
18:01 2 27.1 47 64,281 0 4.94 1.1 20.93 148.62 0 4.28 7.79 9.82
17:57 2 27.5 46 64,944 0 0.31 1.09 19.09 149.06 0 5.7 8.36 12.15
17:55 2 27.7 46 65,056 0 2.22 1.09 20.56 127.19 0 4.28 7.33 9.84
17:54 2 27.7 45 65,113 0 4.17 1.08 22.84 145.51 0 3.56 6.82 9.07
17:47 2 28.4 44 65,469 0 0 1.32 20.94 113.68 0 3.56 6.36 7.53
17:46 2 28.5 44 65,523 0 2.3 1.31 25.57 113.31 0 2.85 7.41 9.87
17:45 2 28.6 44 65,566 0 0 1.3 27.52 97.72 0 4.99 7.42 9.09
17:44 2 28.7 44 65,621 0 0 1.29 22.14 113.34 0 3.56 6.39 7.53
17:43 2 28.8 43 65,665 0 0.57 1.12 24.07 117.1 0 3.56 6.41 7.53